Location: Newark
(40.9833°N, 0.0333°W)
Time: 23:48:05
(UTC+00:00)

deb Explorer IX - Pass Details

Date: 31 October 2020
Orbit: 537 x 1105 km, 38.8° (Epoch: 03 December)

Event Time Altitude Azimuth Distance (km) Brightness Sun altitude
Rises 04:01:01 0° 230° (SW) 3,117 - -28.6°
Reaches altitude 10° 04:03:24 10° 223° (SW) 2,285 - -28.1°
Exits shadow 04:07:26 37° 180° (S) 1,263 ? -27.4°
Maximum altitude 04:08:27 40° 155° (SSE) 1,221 ? -27.2°
Drops below altitude 10° 04:14:21 10° 87° (E) 2,668 ? -26.1°
Sets 04:17:18 0° 81° (E) 3,702 ? -25.5°
